Weather History for Mt. Clemens, MI

Change the Weather History Date:

Tuesday, September 10, 2013

  Actual Average Record
Temperature  
Mean Temperature 82 °F -  
Max Temperature 97 °F 75 °F 97 °F (2013)
Min Temperature 69 °F 55 °F 43 °F (1969)
Cooling Degree Days 18    
Growing Degree Days 32 (Base 50)    
Moisture  
Dew Point 68 °F    
Average Humidity 66    
Maximum Humidity 95    
Minimum Humidity 35    
Precipitation  
Precipitation 0.00 in - - ()
Sea Level Pressure  
Sea Level Pressure 29.95 in    
Wind  
Wind Speed 10 mph (SW)    
Max Wind Speed 21 mph    
Max Gust Speed 26 mph    
Visibility 9 miles    
Events      
Averages and records for this station are not official NWS values.
T = Trace of Precipitation, MM = Missing Value Source: NWS Daily Summary

Daily Weather History Graph

Daily Weather History Graph

Search for Another Location

Airport:

Trip Planner

Search our weather history database for the weather conditions in past years. The results will help you decide how hot, cold, wet, or windy it might be!

Date:

Astronomy

Sep. 10, 2013 Rise Set
Actual Time 7:06 AM EDT 7:49 PM EDT
Civil Twilight 6:37 AM EDT 8:17 PM EDT
Nautical Twilight 6:03 AM EDT 8:51 PM EDT
Astronomical Twilight 5:28 AM EDT 9:26 PM EDT
Moon 12:38 PM EDT (9/10) 10:43 PM EDT (9/10)
Length of Visible Light 13h 40m
Length of Day
12h 43m
Waxing Crescent, 28% of the Moon is Illuminated
Sep 10
Waxing Crescent
Sep 12
First Quarter
Sep 19
Full
Sep 26
Last Quarter
Oct 4
New

Hourly Weather History & Observations

Time (EDT) Temp. Heat Index Dew Point Humidity Pressure Visibility Wind Dir Wind Speed Gust Speed Precip Events Conditions
12:18 AM 69.8 °F - 68.0 °F 94% 29.89 in 7.0 mi South 6.9 mph - N/A   Clear
12:48 AM 71.6 °F - 69.8 °F 94% 29.88 in 10.0 mi South 8.1 mph - N/A   Clear
12:58 AM 71.2 °F - 69.8 °F 95% 29.88 in 10.0 mi South 9.2 mph - N/A   Clear
1:58 AM 75.2 °F - 69.1 °F 81% 29.88 in 10.0 mi SW 8.1 mph - N/A   Clear
2:58 AM 77.7 °F - 69.6 °F 76% 29.89 in 10.0 mi SW 15.0 mph 18.4 mph N/A   Partly Cloudy
3:58 AM 77.5 °F - 70.0 °F 77% 29.90 in 10.0 mi SW 11.5 mph - N/A   Scattered Clouds
4:58 AM 76.5 °F - 70.3 °F 81% 29.90 in 10.0 mi SW 10.4 mph - N/A   Partly Cloudy
5:58 AM 75.6 °F - 70.3 °F 84% 29.91 in 10.0 mi WSW 8.1 mph - N/A   Partly Cloudy
6:58 AM 74.8 °F - 70.5 °F 86% 29.94 in 10.0 mi WSW 6.9 mph - N/A   Clear
7:55 AM 75.6 °F - 70.9 °F 85% 29.95 in 6.0 mi WSW 9.2 mph - N/A   Partly Cloudy
8:55 AM 79.5 °F - 71.2 °F 76% 29.95 in 7.0 mi WSW 11.5 mph 17.3 mph N/A   Scattered Clouds
9:55 AM 82.2 °F 86.9 °F 71.4 °F 70% 29.96 in 7.0 mi WSW 15.0 mph 23.0 mph N/A   Clear
10:55 AM 86.0 °F 91.8 °F 71.4 °F 62% 29.97 in 7.0 mi WSW 12.7 mph - N/A   Clear
11:55 AM 89.8 °F 97.0 °F 72.1 °F 56% 29.98 in 7.0 mi SW 10.4 mph 18.4 mph N/A   Partly Cloudy
12:55 PM 93.7 °F 100.5 °F 70.5 °F 47% 29.98 in 7.0 mi WSW 12.7 mph - N/A   Partly Cloudy
1:55 PM 95.7 °F 100.9 °F 68.7 °F 41% 29.97 in 10.0 mi WSW 17.3 mph 20.7 mph N/A   Partly Cloudy
2:55 PM 96.3 °F 99.7 °F 66.4 °F 37% 29.96 in 10.0 mi West 17.3 mph - N/A   Partly Cloudy
3:55 PM 95.7 °F 98.2 °F 64.8 °F 36% 29.96 in 10.0 mi WSW 13.8 mph 26.5 mph N/A   Clear
4:55 PM 94.6 °F 95.9 °F 63.0 °F 35% 29.96 in 10.0 mi WSW 16.1 mph 25.3 mph N/A   Clear
5:55 PM 93.0 °F 93.8 °F 62.2 °F 36% 29.97 in 10.0 mi WSW 20.7 mph 26.5 mph N/A   Clear
6:55 PM 90.3 °F 92.2 °F 65.1 °F 43% 29.97 in 10.0 mi WSW 8.1 mph - N/A   Clear
7:55 PM 86.9 °F 88.9 °F 65.5 °F 49% 29.98 in 10.0 mi WSW 5.8 mph - N/A   Clear
8:58 PM 84.6 °F 86.8 °F 66.2 °F 54% 30.00 in 10.0 mi WSW 4.6 mph - N/A   Clear
9:58 PM 77.4 °F - 67.8 °F 72% 30.01 in 10.0 mi SSW 4.6 mph - N/A   Clear
10:58 PM 77.0 °F - 67.1 °F 71% 30.00 in 10.0 mi SSW 4.6 mph - N/A   Clear
11:58 PM 75.7 °F - 67.8 °F 76% 30.00 in 10.0 mi SW 5.8 mph - N/A   Clear